Location: Unspecified
(42.3650°N, 71.1030°W)
Time: 15:47:38
(UTC+00:00)

Tiros 1 - Pass Details

Date: 02 July 2024
Orbit: 624 x 656 km, 48.4° (Epoch: 13 July)

Event Time Altitude Azimuth Distance (km) Brightness Sun altitude
Rises 07:32:10 0° 291° (WNW) 2,909 10.3 -14.5°
Reaches altitude 10° 07:34:42 10° 281° (W) 2,003 9.4 -14.2°
Maximum altitude 07:38:39 29° 221° (SW) 1,165 7.9 -13.8°
Drops below altitude 10° 07:42:37 10° 162° (SSE) 2,008 9.4 -13.3°
Sets 07:45:11 0° 151° (SSE) 2,919 10.3 -13.0°
